Temperature
22 22 21 21 22 22 23 24 25 24 25 25 25 24 23 22 21 19 18 19 18 18 18 17 18 17 17 17 17 17 17 17 17 17 17 17 17 17 17 18 18 18 18 18 18 18 17 18 18
22 21 21 22 22 23 23 24 24 25 25 25 25 24 23 22 21 19 19 19 18 18 18 17 17 17 17 17 17 17 17 17 17 17 17 17 17 17 17 17 17 17 17 17 17 17 17 17 17
22 22 22 23 23 23 23 24 25 25 25 25 25 24 23 22 21 19 19 19 18 18 18 18 17 17 17 17 17 17 17 17 17 17 17 17 17 17 17 17 17 17 17 17 17 17 17 17 17
22 22 23 23 24 25 25 25 25 25 25 25 24 23 22 21 20 19 19 19 18 18 18 18 17 17 17 17 17 17 17 17 17 17 17 17 17 17 17 17 17 17 17 17 17 17 17 17 17
22 23 23 23 24 25 26 26 26 26 25 25 24 22 21 20 20 20 19 19 19 18 18 18 18 18 17 17 17 17 17 17 17 17 17 17 17 17 17 17 17 17 17 17 17 17 17 17 17
23 24 23 23 24 25 26 26 26 26 25 25 24 22 21 20 20 20 19 19 19 18 18 18 18 18 17 17 17 17 17 17 17 17 17 17 17 17 17 17 17 17 17 17 17 17 17 17 17
24 24 24 24 24 25 26 26 26 25 25 25 24 23 21 20 20 20 19 19 19 19 18 18 18 18 17 17 17 17 17 17 17 17 17 17 17 17 17 16 16 17 17 17 17 17 17 17 17
24 24 24 24 24 24 26 26 25 25 25 24 24 23 21 20 20 20 20 19 19 19 18 18 18 18 18 17 17 17 17 17 17 17 17 17 16 16 16 16 16 16 16 16 16 16 16 16 16
25 24 23 24 24 25 26 26 25 25 24 24 24 23 21 21 20 20 20 20 19 19 19 19 18 18 18 17 17 17 17 17 17 17 17 16 16 16 16 16 16 16 16 16 16 16 16 16 16
25 23 24 25 26 25 26 25 25 25 24 24 23 22 21 21 21 21 20 20 20 20 19 19 19 18 18 17 17 17 17 17 17 16 16 16 16 16 16 16 16 16 16 16 16 16 16 16 16
26 24 25 26 26 26 26 25 25 25 24 24 23 22 22 21 21 21 21 20 20 20 19 19 19 19 18 17 17 17 17 17 17 16 16 16 16 16 16 16 16 16 16 16 16 16 16 16 16
26 26 26 26 25 25 25 25 25 24 24 24 23 22 22 22 22 22 21 21 20 20 19 19 19 19 18 18 17 17 17 17 17 17 16 16 16 16 16 16 16 16 16 16 16 16 16 16 16
26 26 26 25 25 25 25 25 25 24 24 24 23 23 22 22 22 22 21 21 20 20 19 19 19 19 18 18 18 17 17 17 17 17 17 16 16 16 16 16 16 16 15 15 16 15 15 15 15
26 26 26 26 25 25 25 25 25 24 24 24 23 23 23 23 22 22 21 21 21 20 20 19 19 19 18 18 18 18 17 17 17 17 17 16 16 16 16 16 16 16 15 15 15 15 15 15 15
26 25 25 26 26 26 25 24 25 24 24 24 24 23 23 23 22 22 21 21 21 20 20 19 19 19 18 18 18 18 17 17 17 17 16 16 16 16 16 16 16 16 15 15 15 15 15 15 15
26 25 24 25 26 26 25 23 25 25 25 24 24 23 23 23 22 22 22 21 21 20 20 19 19 18 18 18 18 17 17 17 17 17 16 16 16 16 16 16 16 15 15 15 15 15 15 15 15
25 25 25 25 26 26 25 24 25 25 25 25 24 24 23 23 22 22 22 21 21 20 20 19 19 18 18 18 18 17 17 17 17 16 16 16 16 16 16 16 15 15 15 15 15 15 15 15 15
25 25 25 25 26 26 25 24 25 25 25 25 24 24 23 23 22 22 21 21 20 20 20 19 19 18 18 18 18 17 17 17 16 16 16 16 16 16 16 15 15 15 15 15 15 15 15 14 15
26 25 25 26 26 26 25 25 25 25 25 25 25 24 24 23 23 22 21 21 20 20 20 19 19 18 18 18 18 17 17 17 16 16 16 16 16 16 15 15 15 15 15 15 14 14 14 14 14
26 25 25 26 26 26 25 25 25 25 25 25 25 24 24 23 23 22 21 21 20 20 20 19 19 18 18 18 17 17 17 17 17 16 16 16 16 15 15 15 15 15 15 15 14 14 14 14 14
26 25 25 25 25 25 25 24 25 25 25 25 25 25 24 24 23 22 21 21 20 20 20 19 19 18 18 18 17 17 17 17 16 16 16 16 16 15 15 15 15 15 14 14 14 14 14 14 14
25 25 25 25 24 24 25 23 24 25 25 25 25 24 24 23 23 22 21 20 20 20 19 19 19 18 18 18 17 17 17 17 16 16 16 16 15 15 15 15 15 14 14 14 14 14 14 14 14
25 25 25 25 24 24 24 24 24 25 24 24 24 24 24 23 22 21 21 20 20 19 19 19 18 18 18 17 17 17 17 16 16 16 16 16 15 15 15 15 15 14 14 14 14 14 14 14 14
26 25 25 25 24 23 24 24 24 25 25 25 25 24 23 23 22 21 20 20 19 19 18 18 18 18 17 17 17 17 17 16 16 16 16 16 15 15 15 15 14 14 14 14 14 14 14 14 14
25 24 23 23 22 23 25 25 24 25 26 25 25 24 23 23 22 21 20 19 19 18 18 18 17 17 17 17 17 17 16 16 16 16 16 15 15 15 15 14 14 14 14 14 14 14 14 14 14
25 24 23 22 23 24 25 24 24 26 26 25 25 24 23 22 22 21 20 19 19 18 18 17 17 17 17 17 17 17 16 16 16 16 16 15 15 15 15 14 14 14 14 14 14 14 14 14 14
24 24 25 24 24 23 24 24 24 25 25 25 24 24 23 22 22 21 20 19 18 18 17 17 17 17 17 17 16 16 16 16 16 15 15 15 15 15 15 14 14 14 14 14 14 13 13 13 14
25 25 24 23 23 22 24 24 23 24 24 24 24 23 23 22 21 21 20 19 18 18 17 17 17 17 17 16 16 16 16 16 15 15 15 15 15 15 15 14 14 14 14 14 14 13 13 13 13
24 24 24 23 23 23 22 23 25 24 24 24 24 23 22 22 21 21 20 19 18 18 17 17 17 17 16 16 16 16 16 15 15 15 15 15 15 15 14 14 14 14 14 14 14 13 13 13 13
24 24 24 22 23 23 23 23 25 25 24 24 23 23 22 22 21 20 20 19 18 18 17 17 17 17 16 16 16 16 15 15 15 15 15 14 14 14 14 14 14 14 14 13 13 13 13 13 13
Wind_Speed
7 8 6 3 2 1 5 6 8 7 6 8 8 8 11 12 8 6 3 4 5 7 9 10 10 10 9 9 9 9 9 9 9 9 9 9 9 9 8 7 6 7 8 8 8 8 8 8 7
8 6 4 3 2 2 6 7 8 9 7 5 6 10 11 10 10 8 4 3 6 8 10 10 10 10 9 9 9 9 9 9 9 9 9 9 9 8 7 7 7 8 8 8 8 8 9 8 8
9 7 3 2 2 5 6 7 7 7 5 5 6 10 9 7 8 5 5 4 7 9 11 11 10 10 9 9 9 9 9 9 9 9 9 9 9 9 8 8 8 8 8 8 8 8 8 8 8
5 3 3 1 5 8 7 7 6 6 5 6 7 8 9 9 6 6 6 6 8 9 11 11 10 10 10 9 9 10 10 10 9 9 9 9 9 9 9 9 9 9 9 8 8 8 8 8 7
4 3 1 2 6 8 6 6 5 6 6 8 10 10 9 9 9 8 6 7 8 9 10 11 10 10 10 10 10 10 10 10 10 10 10 10 9 10 10 10 10 10 9 9 9 9 8 7 7
3 2 0 3 7 7 5 5 6 8 8 7 9 10 7 8 8 7 7 6 7 8 10 11 10 10 10 11 10 10 10 10 9 9 10 10 10 10 11 11 10 10 9 9 8 8 8 7 7
3 2 2 4 6 5 6 6 6 6 7 6 6 7 7 7 6 6 7 6 6 7 8 9 10 10 10 11 10 10 10 9 8 8 8 9 9 10 10 11 10 10 9 8 8 7 7 7 6
3 1 2 4 5 5 6 5 5 6 6 5 5 6 7 7 6 6 6 6 6 6 7 7 9 10 10 10 10 9 9 7 6 7 6 6 8 10 10 10 10 9 8 8 7 6 6 6 5
3 0 3 4 4 4 5 4 4 4 6 7 8 10 10 9 7 5 5 5 5 6 6 6 6 7 9 9 9 8 8 6 5 4 5 5 5 8 9 10 9 9 8 7 5 5 4 4 3
1 3 4 4 3 4 4 4 3 3 5 6 8 10 10 8 7 6 6 5 5 5 5 5 6 6 7 6 8 6 6 6 4 4 5 5 6 7 9 9 8 7 6 5 3 3 2 2 2
3 3 3 4 4 4 3 3 3 3 3 5 7 8 8 8 6 6 6 6 5 5 4 5 5 6 6 4 4 4 4 3 4 5 6 6 6 5 6 5 5 4 4 2 2 2 2 3 4
4 3 3 4 4 3 2 3 3 4 3 5 7 8 7 6 6 6 6 6 6 6 5 4 5 5 6 5 3 3 3 3 3 4 6 5 2 2 3 3 3 3 3 3 3 2 4 5 7
3 3 3 3 2 2 2 2 3 3 4 6 7 6 6 6 5 5 6 6 7 7 5 5 4 5 5 4 2 4 3 3 4 3 4 5 3 2 2 3 3 4 4 4 3 3 4 5 6
2 3 2 2 2 3 3 2 3 3 4 6 7 6 5 5 6 5 5 5 6 6 6 6 4 4 5 4 3 3 3 4 4 2 3 6 4 3 3 3 3 4 4 4 3 4 4 4 4
2 3 3 2 2 2 2 2 3 5 5 6 7 6 5 6 6 6 5 4 6 6 6 6 4 4 5 4 4 3 3 4 3 3 4 5 5 5 4 3 3 3 5 6 4 4 4 3 4
6 5 3 3 3 3 3 2 4 6 6 5 6 7 6 5 5 5 6 5 5 6 7 7 5 4 4 4 3 2 4 4 4 4 4 5 5 7 5 3 2 4 5 4 3 3 3 3 3
6 4 3 4 4 3 4 2 4 6 5 5 6 6 6 6 5 5 6 5 4 4 6 7 6 5 5 4 3 3 4 3 4 4 4 5 5 7 5 2 2 5 3 3 3 4 3 3 3
3 3 2 3 4 3 4 4 5 6 6 5 6 6 7 7 6 6 6 6 5 3 4 7 7 5 5 2 3 3 4 3 3 3 3 4 4 6 5 2 4 5 3 3 4 4 3 3 2
5 5 4 1 2 3 5 4 4 7 6 6 6 6 6 6 7 7 6 7 6 4 3 6 7 5 4 2 2 3 3 2 3 3 4 3 4 5 4 3 4 3 3 3 3 3 3 2 3
6 6 5 2 1 3 5 6 5 6 7 6 6 6 6 6 7 7 7 6 5 4 3 5 6 6 5 3 2 3 3 2 3 2 3 3 4 5 3 3 3 3 3 3 3 2 2 2 2
7 5 5 5 4 5 7 6 6 7 7 6 5 4 5 7 8 8 7 6 6 5 3 4 6 6 5 4 2 3 3 2 2 2 2 2 4 3 3 2 2 2 2 2 2 2 2 1 1
5 3 5 6 5 4 4 4 4 6 7 7 6 4 4 5 6 7 7 7 6 5 3 4 5 5 5 5 3 4 3 2 2 2 2 2 2 2 3 3 3 2 2 2 1 2 1 1 1
4 5 7 8 7 8 8 6 4 7 7 8 7 6 5 5 6 6 7 7 6 5 3 3 4 5 5 4 4 3 2 2 2 2 2 1 1 2 3 2 1 1 2 2 2 2 1 1 1
5 8 9 8 6 8 9 6 3 4 5 6 7 8 7 6 6 7 7 7 6 6 4 4 4 4 3 3 4 3 3 2 3 2 2 1 1 1 2 1 0 1 1 1 2 1 1 0 0
7 6 4 4 5 5 4 3 2 5 6 5 4 6 8 7 8 7 7 7 7 6 5 4 4 3 3 3 3 3 3 2 3 2 2 1 1 1 1 1 0 1 1 1 1 0 1 1 1
6 7 4 4 4 3 2 2 4 7 7 6 5 5 7 8 7 8 8 7 7 7 5 5 4 4 3 3 3 3 3 2 1 2 2 2 1 2 2 1 1 1 1 1 1 0 1 1 1
6 6 6 7 9 7 3 2 4 7 7 5 5 5 6 7 8 8 8 7 7 7 6 5 5 4 4 3 2 2 3 2 1 1 1 1 1 2 2 2 2 2 1 1 1 1 1 1 1
8 7 5 5 4 5 4 3 4 6 6 5 4 4 5 5 6 7 7 6 6 6 5 5 5 5 4 3 2 2 2 3 2 1 1 1 1 2 2 2 1 2 2 2 2 1 1 1 1
6 7 6 5 6 5 4 1 4 5 5 4 3 3 4 5 6 5 6 6 6 6 6 5 5 5 4 3 3 2 2 2 3 2 2 2 2 2 2 2 1 1 1 1 1 1 2 2 2
5 6 7 5 6 5 5 1 5 6 5 4 3 2 3 5 5 5 5 5 6 6 6 5 5 5 4 4 3 3 2 2 3 3 2 2 2 1 1 2 2 2 1 1 2 2 2 2 2
Wind_Direction
259 250 250 254 258 211 65 63 63 51 53 48 46 56 62 50 48 82 104 67 76 85 88 74 61 57 55 53 53 55 58 57 59 63 64 63 61 55 55 66 74 81 80 76 70 67 69 68 63
274 270 267 243 253 83 75 73 70 62 63 62 58 66 69 60 66 92 100 82 89 85 81 74 64 60 59 57 57 57 62 59 63 65 65 63 61 56 56 69 78 86 87 83 77 73 72 71 69
264 267 268 268 6 60 78 77 79 76 65 66 69 62 57 62 68 92 117 117 95 87 86 80 70 64 62 63 64 62 62 62 64 64 65 65 64 59 62 74 79 85 86 82 77 76 77 73 68
262 263 249 32 61 67 84 97 99 88 71 65 76 72 68 61 79 105 119 112 100 97 95 92 81 74 70 71 69 67 66 67 66 66 69 67 66 63 65 75 78 80 81 80 78 80 79 76 68
251 256 217 85 76 77 75 79 81 81 72 67 81 88 84 79 91 100 103 96 100 103 104 103 97 90 84 79 75 73 72 71 69 70 72 71 71 74 72 75 77 77 77 76 76 77 77 74 67
272 253 339 85 87 77 68 70 79 80 84 78 88 99 94 99 96 102 99 95 97 105 109 111 112 105 96 88 81 77 76 77 77 76 74 75 76 77 77 76 78 78 77 76 75 75 72 69 64
279 308 85 94 90 89 77 60 59 69 71 69 86 99 113 108 111 113 105 102 104 107 117 125 128 120 111 101 95 91 87 86 87 86 81 83 85 87 86 82 78 78 78 80 80 82 78 69 63
285 296 90 89 88 85 80 74 68 68 74 68 72 95 118 125 130 121 120 111 109 107 109 121 129 129 126 119 113 109 106 103 103 105 100 95 98 98 94 89 85 84 84 81 81 84 83 73 66
268 327 74 72 85 93 99 93 81 86 88 76 73 94 117 128 129 124 121 112 105 107 113 118 119 125 125 126 124 131 128 132 132 132 134 125 113 105 101 95 96 92 87 83 83 85 88 80 69
144 69 74 68 83 97 94 94 102 105 94 97 97 106 121 131 136 136 126 120 118 107 103 113 123 124 115 111 128 142 127 141 152 115 116 118 96 89 99 107 109 105 102 94 86 82 84 73 65
88 94 73 69 68 84 92 100 94 95 104 109 121 124 131 142 149 144 129 119 109 101 92 102 104 109 109 102 109 105 106 116 107 95 92 87 96 109 115 130 134 131 122 95 86 89 91 92 82
110 98 84 75 70 87 87 80 73 78 88 102 111 127 141 153 151 141 125 130 125 108 95 90 94 101 105 105 108 116 105 84 71 66 83 86 72 80 89 93 95 89 83 67 54 56 44 53 57
125 111 105 104 113 124 117 106 100 101 113 120 125 137 152 151 135 116 119 122 116 111 115 98 89 94 101 103 128 111 100 91 87 68 77 90 75 65 73 82 79 84 81 64 45 40 46 49 42
103 105 119 147 148 151 141 147 154 147 155 145 146 151 155 136 127 120 121 124 120 128 125 109 110 104 108 111 98 90 104 105 93 78 91 97 95 84 62 64 66 65 72 79 63 58 56 55 59
183 180 181 192 182 156 176 196 173 156 170 162 157 156 154 147 143 139 135 127 128 133 120 107 106 98 96 93 78 85 85 91 84 65 63 87 93 92 78 64 67 68 63 68 59 55 66 68 65
222 217 198 188 192 180 220 224 148 160 181 176 169 161 160 156 157 144 137 127 124 134 129 130 127 117 106 95 92 85 89 84 79 60 42 54 69 87 80 66 66 75 67 65 62 61 70 73 70
232 227 197 169 193 208 228 231 177 181 190 188 183 167 163 164 162 143 132 128 122 121 132 137 125 117 104 105 125 92 93 90 85 78 52 50 55 81 86 67 70 83 68 50 53 55 81 89 91
277 286 252 192 184 222 247 241 186 182 201 205 187 175 171 167 162 147 134 123 118 119 131 129 119 121 118 111 108 100 85 82 85 84 74 56 56 75 86 72 73 73 64 60 62 61 70 90 88
299 294 288 249 211 251 261 257 205 180 198 208 195 184 174 162 151 140 135 137 134 137 134 125 133 130 120 115 109 111 104 104 87 82 83 63 66 75 80 68 70 71 74 70 73 79 73 72 90
274 278 282 258 243 266 266 261 222 184 196 210 205 186 174 161 149 142 148 140 133 130 138 139 130 128 125 125 116 123 122 114 102 83 89 76 66 66 75 79 88 85 85 73 73 81 61 39 47
267 281 307 314 313 278 272 258 214 186 190 186 195 187 172 165 158 156 150 134 130 132 147 133 131 134 135 128 113 100 84 78 92 105 92 72 74 61 64 80 86 99 107 113 109 84 86 91 3
283 318 300 288 283 276 255 278 214 191 182 178 182 189 171 154 146 145 141 135 137 135 143 136 130 129 125 125 127 132 141 145 149 137 130 119 115 112 88 83 80 78 93 101 101 86 97 102 89
293 301 286 281 279 279 262 253 212 172 182 181 179 173 162 148 143 140 134 131 129 124 117 108 109 113 114 126 134 141 144 166 150 128 122 133 124 118 101 98 105 114 112 124 95 78 58 107 108
280 274 268 256 257 259 252 244 199 180 170 161 162 163 160 151 139 132 127 128 123 118 116 105 103 104 120 150 156 170 163 161 145 143 146 143 119 96 87 95 121 117 103 99 111 130 130 115 75
249 265 273 240 220 238 234 228 152 115 115 123 144 154 151 147 142 138 135 140 139 138 140 136 127 132 155 177 176 180 165 156 138 139 136 136 142 142 153 132 152 98 102 132 107 179 228 168 190
260 259 262 282 283 297 238 218 123 115 116 123 131 137 142 145 144 144 144 144 145 146 153 156 152 157 167 185 188 180 140 122 113 145 143 157 165 177 159 155 157 140 157 179 165 225 254 218 213
273 269 274 277 286 286 253 152 136 129 116 118 127 136 141 145 145 146 146 152 152 151 157 163 161 167 170 187 189 150 127 125 131 163 128 141 168 169 145 174 179 162 176 218 164 215 263 281 230
257 287 293 281 287 285 273 223 163 138 130 134 129 128 136 143 144 147 148 152 151 151 162 171 175 179 173 177 183 179 154 148 157 182 155 193 202 172 156 186 204 176 192 203 173 206 241 273 293
230 243 256 269 268 274 292 22 93 126 126 124 113 128 143 146 148 150 146 151 147 150 168 180 182 176 170 181 195 190 172 176 174 175 179 216 217 190 188 185 190 162 224 202 169 223 224 224 240
273 267 271 272 282 290 294 49 96 98 102 110 112 123 132 139 142 143 146 153 152 161 177 185 188 179 175 187 196 204 184 181 184 182 185 222 238 220 209 187 200 179 206 211 207 233 240 226 237
Height
1493 1493 1493 1495 1496 1498 1499 1495 1492 1493 1494 1496 1496 1496 1499 1503 1508 1517 1516 1514 1514 1512 1511 1509 1509 1508 1507 1507 1507 1507 1507 1506 1507 1507 1507 1507 1507 1507 1507 1508 1508 1509 1510 1511 1511 1512 1513 1513 1514
1493 1494 1496 1495 1498 1504 1503 1495 1496 1495 1496 1497 1497 1498 1501 1506 1510 1513 1514 1515 1514 1513 1512 1511 1510 1509 1508 1508 1508 1508 1507 1507 1507 1508 1508 1508 1508 1508 1508 1508 1509 1510 1511 1512 1512 1513 1514 1514 1514
1494 1495 1496 1494 1496 1502 1503 1496 1496 1496 1497 1497 1498 1501 1505 1510 1512 1514 1515 1515 1515 1514 1513 1512 1511 1510 1509 1509 1509 1509 1509 1508 1508 1509 1509 1509 1509 1509 1509 1509 1510 1511 1512 1513 1513 1514 1514 1515 1515
1496 1497 1496 1497 1499 1495 1495 1495 1495 1497 1498 1498 1500 1504 1510 1513 1514 1515 1516 1516 1516 1515 1514 1513 1512 1511 1510 1510 1510 1510 1510 1510 1510 1510 1510 1510 1510 1510 1510 1510 1511 1512 1513 1513 1514 1514 1515 1515 1516
1497 1496 1497 1501 1498 1494 1494 1495 1496 1497 1498 1499 1502 1508 1512 1515 1515 1516 1517 1517 1517 1516 1515 1514 1513 1512 1512 1511 1511 1511 1511 1511 1511 1511 1511 1512 1512 1512 1512 1512 1512 1513 1513 1514 1515 1515 1516 1516 1517
1498 1495 1502 1505 1500 1496 1495 1496 1497 1498 1500 1502 1504 1508 1514 1516 1516 1517 1518 1518 1518 1518 1516 1515 1515 1514 1514 1513 1513 1513 1513 1513 1513 1513 1513 1513 1513 1514 1514 1513 1514 1514 1514 1515 1515 1516 1516 1517 1518
1498 1496 1501 1501 1502 1500 1498 1498 1499 1500 1502 1503 1505 1509 1514 1516 1517 1518 1518 1519 1519 1519 1518 1517 1516 1516 1515 1515 1515 1515 1515 1515 1515 1515 1515 1515 1515 1515 1515 1515 1515 1515 1516 1516 1516 1517 1517 1518 1518
1497 1496 1499 1500 1503 1503 1500 1500 1502 1503 1504 1506 1506 1509 1514 1517 1517 1518 1519 1519 1520 1520 1519 1519 1518 1518 1517 1517 1517 1517 1517 1517 1517 1517 1517 1517 1517 1517 1517 1517 1517 1517 1517 1517 1518 1518 1518 1519 1519
1497 1499 1504 1502 1503 1502 1500 1502 1503 1504 1505 1507 1508 1510 1514 1516 1518 1519 1519 1520 1521 1521 1521 1520 1520 1520 1520 1519 1519 1519 1519 1519 1519 1520 1520 1519 1519 1519 1519 1519 1519 1519 1519 1519 1519 1519 1520 1520 1520
1497 1503 1502 1498 1498 1500 1501 1502 1503 1504 1506 1508 1510 1513 1515 1516 1518 1519 1519 1520 1521 1522 1522 1522 1522 1522 1522 1522 1521 1521 1521 1522 1522 1522 1522 1522 1522 1522 1521 1521 1521 1520 1520 1520 1520 1521 1521 1521 1521
1497 1501 1499 1499 1500 1501 1502 1503 1503 1505 1507 1509 1511 1513 1515 1516 1518 1518 1519 1521 1522 1522 1523 1523 1523 1523 1523 1523 1524 1524 1523 1523 1524 1524 1523 1523 1523 1523 1523 1522 1522 1522 1522 1522 1522 1522 1522 1522 1522
1499 1499 1500 1501 1502 1502 1503 1504 1505 1506 1508 1509 1511 1513 1515 1516 1517 1518 1520 1521 1522 1523 1524 1524 1524 1524 1524 1524 1524 1525 1525 1525 1525 1525 1525 1525 1524 1524 1524 1524 1524 1523 1523 1523 1523 1523 1523 1523 1523
1499 1500 1501 1502 1503 1503 1504 1505 1506 1508 1509 1510 1512 1514 1515 1516 1517 1518 1520 1521 1522 1523 1524 1524 1525 1525 1525 1525 1525 1526 1526 1526 1526 1526 1526 1525 1525 1525 1525 1525 1525 1524 1524 1524 1523 1524 1524 1524 1524
1499 1500 1501 1502 1502 1503 1504 1505 1506 1507 1508 1510 1512 1513 1514 1516 1517 1519 1520 1521 1522 1523 1524 1524 1525 1526 1526 1526 1526 1527 1527 1527 1527 1527 1527 1526 1526 1526 1526 1526 1525 1525 1525 1525 1524 1524 1524 1524 1524
1499 1501 1501 1501 1501 1502 1504 1506 1505 1506 1507 1509 1510 1512 1514 1515 1517 1518 1520 1521 1521 1522 1523 1524 1525 1526 1526 1526 1527 1527 1527 1527 1528 1528 1528 1527 1527 1527 1526 1526 1526 1526 1526 1525 1525 1524 1524 1524 1525
1498 1500 1506 1501 1500 1501 1506 1511 1504 1505 1506 1507 1509 1511 1513 1514 1516 1517 1519 1520 1521 1522 1523 1524 1525 1526 1526 1527 1527 1528 1528 1528 1528 1528 1528 1528 1528 1528 1527 1527 1527 1527 1526 1525 1525 1524 1523 1524 1525
1499 1503 1504 1502 1498 1499 1502 1506 1502 1503 1505 1506 1507 1509 1511 1513 1515 1517 1518 1520 1521 1522 1523 1523 1524 1525 1526 1527 1527 1528 1528 1529 1529 1529 1529 1529 1529 1528 1527 1528 1527 1527 1526 1526 1525 1524 1523 1524 1525
1503 1501 1500 1501 1497 1497 1501 1501 1499 1501 1502 1504 1505 1507 1509 1511 1513 1515 1517 1518 1520 1521 1522 1523 1524 1525 1526 1527 1528 1528 1529 1529 1529 1530 1529 1529 1529 1529 1528 1528 1528 1527 1527 1526 1525 1524 1524 1525 1526
1495 1498 1499 1497 1493 1497 1499 1498 1496 1498 1500 1501 1503 1505 1507 1509 1511 1514 1516 1518 1519 1521 1522 1523 1523 1524 1526 1527 1527 1528 1529 1529 1530 1530 1530 1530 1530 1529 1529 1528 1528 1527 1527 1527 1526 1526 1526 1526 1526
1495 1499 1499 1495 1492 1495 1497 1496 1493 1494 1497 1499 1500 1502 1504 1507 1510 1512 1515 1517 1518 1520 1521 1522 1523 1524 1525 1526 1527 1528 1529 1529 1529 1530 1530 1530 1530 1530 1529 1529 1528 1528 1527 1527 1527 1527 1527 1527 1527
1495 1497 1498 1498 1494 1493 1497 1498 1493 1491 1493 1496 1498 1500 1502 1505 1508 1511 1513 1515 1517 1519 1521 1522 1522 1524 1525 1525 1527 1528 1528 1529 1529 1529 1530 1530 1530 1530 1529 1529 1528 1528 1528 1528 1527 1527 1528 1528 1528
1499 1493 1494 1496 1501 1503 1498 1510 1496 1490 1491 1493 1496 1499 1501 1503 1506 1509 1512 1514 1516 1518 1520 1521 1522 1523 1524 1525 1526 1527 1527 1528 1529 1529 1529 1529 1530 1529 1529 1529 1528 1528 1528 1528 1528 1528 1528 1528 1529
1495 1492 1493 1495 1499 1502 1497 1503 1497 1488 1492 1491 1493 1497 1500 1502 1505 1507 1510 1512 1515 1517 1519 1520 1521 1522 1523 1524 1525 1526 1527 1528 1528 1528 1529 1529 1529 1529 1528 1528 1528 1528 1528 1528 1528 1528 1528 1529 1529
1491 1493 1493 1493 1499 1510 1496 1498 1499 1488 1487 1487 1490 1494 1498 1501 1504 1507 1509 1511 1514 1516 1517 1519 1520 1521 1522 1523 1525 1525 1526 1527 1527 1527 1528 1528 1528 1528 1528 1528 1527 1528 1528 1528 1528 1528 1528 1529 1529
1492 1500 1510 1511 1513 1505 1486 1491 1493 1482 1481 1485 1489 1492 1496 1499 1502 1505 1508 1510 1513 1514 1516 1518 1519 1520 1521 1522 1524 1525 1525 1526 1526 1526 1527 1527 1527 1527 1527 1527 1527 1527 1527 1527 1527 1527 1528 1529 1529
1491 1495 1512 1519 1512 1500 1488 1492 1488 1479 1482 1485 1489 1492 1495 1498 1501 1504 1507 1509 1512 1513 1515 1517 1518 1519 1520 1521 1522 1523 1524 1525 1525 1526 1526 1526 1526 1526 1526 1526 1526 1526 1526 1527 1527 1527 1527 1528 1528
1492 1492 1490 1499 1499 1502 1493 1488 1485 1479 1483 1486 1489 1492 1494 1497 1500 1503 1506 1508 1510 1512 1513 1515 1516 1518 1519 1520 1521 1522 1522 1523 1524 1524 1524 1525 1525 1525 1525 1525 1525 1525 1525 1525 1526 1526 1526 1526 1527
1489 1490 1494 1500 1509 1511 1498 1491 1492 1486 1485 1487 1489 1492 1494 1497 1499 1502 1505 1507 1509 1510 1512 1514 1515 1516 1517 1518 1519 1520 1521 1521 1522 1522 1523 1523 1523 1523 1523 1523 1524 1524 1524 1524 1524 1524 1525 1525 1526
1489 1491 1492 1495 1496 1507 1510 1502 1480 1482 1483 1486 1488 1491 1493 1496 1498 1501 1503 1505 1507 1509 1510 1512 1513 1514 1515 1516 1518 1519 1519 1520 1520 1520 1521 1521 1521 1521 1522 1522 1522 1522 1522 1523 1523 1523 1523 1524 1524
1485 1488 1491 1503 1500 1495 1502 1500 1478 1480 1483 1485 1488 1490 1493 1495 1497 1499 1501 1503 1505 1506 1508 1509 1511 1512 1513 1514 1515 1516 1517 1517 1518 1518 1518 1518 1519 1519 1519 1520 1520 1520 1520 1520 1520 1521 1521 1522 1522